timestamp,wind_dir_avg,wind_spd_max_dir,wind_spd_avg,wind_spd_gust,battery_voltage,lat,long
2017-10-07 00:00:00+00:00,268.0,270.0,6.06,6.53,12.7,47.59359,-54.27349
2017-10-07 00:10:00+00:00,265.0,267.0,5.47,6.32,12.6,47.59359,-54.27349
2017-10-07 00:20:00+00:00,255.0,258.0,5.8,6.42,12.7,47.59359,-54.27349
2017-10-07 00:30:00+00:00,268.0,268.0,6.14,7.24,12.7,47.59359,-54.27349
2017-10-07 00:40:00+00:00,276.0,277.0,5.71,6.58,12.7,47.59359,-54.27349
2017-10-07 00:50:00+00:00,271.0,264.0,5.63,6.27,12.7,47.59359,-54.27349
2017-10-07 01:00:00+00:00,265.0,265.0,5.78,6.92,12.6,47.59359,-54.27349
2017-10-07 01:10:00+00:00,259.0,263.0,5.3,5.91,12.6,47.59359,-54.27349
2017-10-07 01:20:00+00:00,262.0,268.0,4.61,5.45,12.7,47.59359,-54.27349
2017-10-07 01:30:00+00:00,263.0,264.0,4.61,5.32,12.7,47.59359,-54.27349
2017-10-07 01:40:00+00:00,246.0,248.0,3.41,3.98,12.7,47.59359,-54.27349
2017-10-07 01:50:00+00:00,234.0,230.0,3.57,4.11,12.7,47.59359,-54.27349
2017-10-07 02:00:00+00:00,243.0,245.0,5.42,5.97,12.6,47.59359,-54.27349
2017-10-07 02:10:00+00:00,240.0,237.0,4.72,5.29,12.6,47.59359,-54.27349
2017-10-07 02:20:00+00:00,245.0,240.0,2.94,3.6,12.7,47.59359,-54.27349
2017-10-07 02:30:00+00:00,294.0,300.0,3.6,4.45,12.7,47.59359,-54.27349
2017-10-07 02:40:00+00:00,305.0,304.0,5.37,5.79,12.7,47.59359,-54.27349
2017-10-07 02:50:00+00:00,307.0,307.0,6.86,8.03,12.7,47.59359,-54.27349
2017-10-07 03:00:00+00:00,314.0,311.0,6.87,8.03,12.6,47.59359,-54.27349
2017-10-07 03:10:00+00:00,317.0,306.0,7.8,8.76,12.6,47.59359,-54.27349
2017-10-07 03:20:00+00:00,323.0,323.0,6.99,7.85,12.7,47.59359,-54.27349
2017-10-07 03:30:00+00:00,331.0,311.0,4.7,5.9,12.7,47.59359,-54.27349
2017-10-07 03:40:00+00:00,328.0,319.0,4.53,5.04,12.7,47.59359,-54.27349
2017-10-07 03:50:00+00:00,328.0,344.0,4.06,6.0,12.7,47.59359,-54.27349
2017-10-07 04:00:00+00:00,332.0,335.0,4.83,5.54,12.6,47.59359,-54.27349
2017-10-07 04:10:00+00:00,323.0,325.0,7.05,9.27,12.6,47.59359,-54.27349
2017-10-07 04:20:00+00:00,332.0,341.0,7.0,8.26,12.6,47.59359,-54.27349
2017-10-07 04:30:00+00:00,333.0,337.0,6.04,7.01,12.6,47.59359,-54.27349
2017-10-07 04:40:00+00:00,332.0,331.0,6.84,8.07,12.6,47.59359,-54.27349
2017-10-07 04:50:00+00:00,326.0,335.0,6.14,7.39,12.6,47.59359,-54.27349
2017-10-07 05:00:00+00:00,324.0,321.0,6.45,7.46,12.6,47.59359,-54.27349
2017-10-07 05:10:00+00:00,330.0,342.0,7.01,7.9,12.6,47.59359,-54.27349
2017-10-07 05:20:00+00:00,334.0,332.0,7.81,9.03,12.6,47.59359,-54.27349
2017-10-07 05:30:00+00:00,334.0,336.0,7.63,8.3,12.6,47.59359,-54.27349
2017-10-07 05:40:00+00:00,320.0,319.0,6.21,7.27,12.6,47.59359,-54.27349
2017-10-07 05:50:00+00:00,309.0,310.0,4.71,5.54,12.6,47.59359,-54.27349
2017-10-07 06:00:00+00:00,292.0,296.0,4.45,5.19,12.6,47.59359,-54.27349
2017-10-07 06:10:00+00:00,317.0,301.0,5.52,6.49,12.6,47.59359,-54.27349
2017-10-07 06:20:00+00:00,308.0,306.0,5.08,5.89,12.6,47.59359,-54.27349
2017-10-07 06:30:00+00:00,309.0,310.0,6.14,7.11,12.6,47.59359,-54.27349
2017-10-07 06:40:00+00:00,308.0,307.0,5.72,6.94,12.6,47.59359,-54.27349
2017-10-07 06:50:00+00:00,295.0,300.0,5.72,6.6,12.6,47.59359,-54.27349
2017-10-07 07:00:00+00:00,297.0,298.0,5.7,6.73,12.6,47.59359,-54.27349
2017-10-07 07:10:00+00:00,302.0,305.0,6.11,7.03,12.6,47.59359,-54.27349
2017-10-07 07:20:00+00:00,304.0,307.0,6.86,7.77,12.6,47.59359,-54.27349
2017-10-07 07:30:00+00:00,306.0,311.0,6.41,7.61,12.6,47.59359,-54.27349
2017-10-07 07:40:00+00:00,305.0,306.0,7.51,8.38,12.6,47.59359,-54.27349
2017-10-07 07:50:00+00:00,299.0,294.0,5.98,6.7,12.6,47.59359,-54.27349
2017-10-07 08:00:00+00:00,299.0,303.0,6.85,7.63,12.6,47.59359,-54.27349
2017-10-07 08:10:00+00:00,299.0,304.0,6.45,7.18,12.5,47.59359,-54.27349
2017-10-07 08:20:00+00:00,288.0,288.0,6.64,7.42,12.6,47.59359,-54.27349
2017-10-07 08:30:00+00:00,288.0,287.0,6.54,8.53,12.6,47.59359,-54.27349
2017-10-07 08:40:00+00:00,297.0,297.0,5.77,6.32,12.6,47.59359,-54.27349
2017-10-07 08:50:00+00:00,290.0,290.0,5.79,6.44,12.6,47.59359,-54.27349
2017-10-07 09:00:00+00:00,287.0,283.0,6.47,6.89,12.6,47.59359,-54.27349
2017-10-07 09:10:00+00:00,291.0,296.0,6.68,7.18,12.5,47.59359,-54.27349
2017-10-07 09:20:00+00:00,294.0,292.0,7.11,7.78,12.6,47.59359,-54.27349
2017-10-07 09:30:00+00:00,294.0,297.0,7.15,7.75,12.6,47.59359,-54.27349
2017-10-07 09:40:00+00:00,289.0,289.0,6.41,6.96,12.6,47.59359,-54.27349
2017-10-07 09:50:00+00:00,298.0,296.0,6.58,8.01,12.6,47.59359,-54.27349
2017-10-07 10:00:00+00:00,288.0,289.0,6.47,6.97,12.8,47.59359,-54.27349
2017-10-07 10:10:00+00:00,281.0,282.0,5.87,6.54,13.1,47.59359,-54.27349
2017-10-07 10:20:00+00:00,274.0,280.0,5.97,6.47,14.2,47.59359,-54.27349
2017-10-07 10:30:00+00:00,266.0,264.0,5.5,6.38,13.7,47.59359,-54.27349
2017-10-07 10:40:00+00:00,271.0,271.0,5.87,6.49,13.8,47.59359,-54.27349
2017-10-07 10:50:00+00:00,272.0,276.0,5.81,6.47,13.7,47.59359,-54.27349
2017-10-07 11:00:00+00:00,283.0,289.0,5.87,6.61,13.7,47.59359,-54.27349
2017-10-07 11:10:00+00:00,285.0,289.0,5.16,5.82,13.8,47.59359,-54.27349
2017-10-07 11:20:00+00:00,275.0,274.0,4.67,5.48,14.0,47.59359,-54.27349
2017-10-07 11:30:00+00:00,271.0,270.0,5.5,6.18,13.8,47.59359,-54.27349
2017-10-07 11:40:00+00:00,266.0,267.0,5.41,7.4,13.8,47.59359,-54.27349
2017-10-07 11:50:00+00:00,268.0,271.0,5.64,6.42,13.8,47.59359,-54.27349
2017-10-07 12:00:00+00:00,272.0,270.0,6.21,6.94,13.8,47.59359,-54.27349
2017-10-07 12:10:00+00:00,268.0,269.0,6.13,7.21,13.8,47.59359,-54.27349
2017-10-07 12:20:00+00:00,270.0,275.0,5.58,6.91,13.9,47.59359,-54.27349
2017-10-07 12:30:00+00:00,263.0,264.0,6.58,7.33,13.8,47.59359,-54.27349
2017-10-07 12:40:00+00:00,263.0,264.0,7.68,8.79,14.2,47.59359,-54.27349
2017-10-07 12:50:00+00:00,267.0,272.0,7.12,8.25,13.9,47.59359,-54.27349
2017-10-07 13:00:00+00:00,278.0,283.0,6.52,7.25,13.9,47.59359,-54.27349
2017-10-07 13:10:00+00:00,285.0,291.0,6.29,7.31,13.7,47.59359,-54.27349
2017-10-07 13:20:00+00:00,258.0,258.0,5.24,5.93,13.9,47.59359,-54.27349
2017-10-07 13:30:00+00:00,268.0,268.0,6.83,7.81,13.9,47.59359,-54.27349
2017-10-07 13:40:00+00:00,268.0,272.0,5.34,6.23,13.8,47.59359,-54.27349
2017-10-07 13:50:00+00:00,261.0,259.0,6.16,7.07,14.0,47.59359,-54.27349
2017-10-07 14:00:00+00:00,285.0,286.0,7.0,8.46,13.7,47.59359,-54.27349
2017-10-07 14:10:00+00:00,282.0,288.0,8.63,9.68,14.0,47.59359,-54.27349
2017-10-07 14:20:00+00:00,297.0,297.0,8.16,9.08,13.9,47.59359,-54.27349
2017-10-07 14:30:00+00:00,286.0,287.0,7.66,8.82,14.0,47.59359,-54.27349
2017-10-07 14:40:00+00:00,286.0,284.0,9.36,10.55,14.0,47.59359,-54.27349
2017-10-07 14:50:00+00:00,287.0,288.0,10.16,11.2,13.9,47.59359,-54.27349
2017-10-07 15:00:00+00:00,284.0,287.0,9.68,10.75,14.0,47.59359,-54.27349
2017-10-07 15:10:00+00:00,292.0,286.0,8.99,10.09,13.9,47.59359,-54.27349
2017-10-07 15:20:00+00:00,293.0,286.0,9.7,11.01,14.0,47.59359,-54.27349
2017-10-07 15:30:00+00:00,284.0,290.0,8.48,9.63,13.9,47.59359,-54.27349
2017-10-07 15:40:00+00:00,284.0,287.0,7.66,9.01,13.9,47.59359,-54.27349
2017-10-07 15:50:00+00:00,277.0,280.0,9.46,10.65,13.9,47.59359,-54.27349
2017-10-07 16:00:00+00:00,281.0,280.0,8.69,9.81,13.8,47.59359,-54.27349
2017-10-07 16:10:00+00:00,276.0,278.0,10.34,11.8,13.7,47.59359,-54.27349
2017-10-07 16:20:00+00:00,281.0,275.0,8.81,10.28,13.8,47.59359,-54.27349
2017-10-07 16:30:00+00:00,288.0,296.0,10.22,11.18,13.9,47.59359,-54.27349
2017-10-07 16:40:00+00:00,288.0,287.0,9.67,10.8,13.9,47.59359,-54.27349
2017-10-07 16:50:00+00:00,294.0,298.0,8.51,9.59,13.9,47.59359,-54.27349
2017-10-07 17:00:00+00:00,294.0,296.0,9.58,11.09,13.8,47.59359,-54.27349
2017-10-07 17:10:00+00:00,293.0,297.0,8.47,9.45,13.9,47.59359,-54.27349
2017-10-07 17:20:00+00:00,273.0,270.0,9.31,10.48,13.9,47.59359,-54.27349
2017-10-07 17:30:00+00:00,278.0,289.0,10.31,12.35,13.8,47.59359,-54.27349
2017-10-07 17:40:00+00:00,277.0,277.0,10.65,11.21,13.8,47.59359,-54.27349
2017-10-07 17:50:00+00:00,267.0,269.0,10.29,12.12,13.8,47.59359,-54.27349
2017-10-07 18:00:00+00:00,276.0,280.0,10.33,11.29,13.8,47.59359,-54.27349
2017-10-07 18:10:00+00:00,271.0,275.0,10.37,13.27,13.7,47.59359,-54.27349
2017-10-07 18:20:00+00:00,279.0,278.0,12.17,13.59,13.7,47.59359,-54.27349
2017-10-07 18:30:00+00:00,286.0,283.0,11.8,13.16,13.8,47.59359,-54.27349
2017-10-07 18:40:00+00:00,269.0,270.0,8.95,10.29,13.7,47.59359,-54.27349
2017-10-07 18:50:00+00:00,271.0,271.0,9.99,12.94,13.7,47.59359,-54.27349
2017-10-07 19:00:00+00:00,274.0,276.0,10.72,11.71,13.7,47.59359,-54.27349
2017-10-07 19:10:00+00:00,271.0,267.0,7.89,8.95,14.2,47.59359,-54.27349
2017-10-07 19:20:00+00:00,267.0,265.0,9.3,10.48,13.7,47.59359,-54.27349
2017-10-07 19:30:00+00:00,267.0,274.0,9.31,10.53,13.7,47.59359,-54.27349
2017-10-07 19:40:00+00:00,272.0,276.0,9.43,10.54,13.7,47.59359,-54.27349
2017-10-07 19:50:00+00:00,268.0,269.0,9.43,10.62,13.8,47.59359,-54.27349
2017-10-07 20:00:00+00:00,263.0,262.0,10.68,11.86,13.7,47.59359,-54.27349
2017-10-07 20:10:00+00:00,268.0,270.0,10.07,11.96,13.7,47.59359,-54.27349
2017-10-07 20:20:00+00:00,269.0,272.0,8.85,10.35,13.8,47.59359,-54.27349
2017-10-07 20:30:00+00:00,263.0,259.0,9.03,10.02,13.7,47.59359,-54.27349
2017-10-07 20:40:00+00:00,261.0,263.0,8.51,9.39,13.7,47.59359,-54.27349
2017-10-07 20:50:00+00:00,262.0,262.0,8.12,9.26,13.5,47.59359,-54.27349
2017-10-07 21:00:00+00:00,262.0,262.0,7.98,9.05,13.4,47.59359,-54.27349
2017-10-07 21:10:00+00:00,258.0,254.0,6.17,7.09,13.2,47.59359,-54.27349
2017-10-07 21:20:00+00:00,250.0,250.0,6.64,8.71,13.1,47.59359,-54.27349
2017-10-07 21:30:00+00:00,240.0,246.0,6.67,7.55,13.0,47.59359,-54.27349
2017-10-07 21:40:00+00:00,242.0,244.0,6.93,7.68,13.0,47.59359,-54.27349
2017-10-07 21:50:00+00:00,245.0,246.0,6.51,7.6,13.0,47.59359,-54.27349
2017-10-07 22:00:00+00:00,242.0,242.0,6.39,7.7,12.9,47.59359,-54.27349
2017-10-07 22:10:00+00:00,251.0,255.0,7.18,8.0,12.7,47.59359,-54.27349
2017-10-07 22:20:00+00:00,241.0,238.0,6.59,8.46,12.8,47.59359,-54.27349
2017-10-07 22:30:00+00:00,250.0,250.0,6.34,7.8,12.8,47.59359,-54.27349
2017-10-07 22:40:00+00:00,251.0,252.0,6.42,7.49,12.8,47.59359,-54.27349
2017-10-07 22:50:00+00:00,245.0,251.0,5.79,6.48,12.8,47.59359,-54.27349
2017-10-07 23:00:00+00:00,241.0,244.0,4.88,5.72,12.7,47.59359,-54.27349
2017-10-07 23:10:00+00:00,235.0,230.0,5.64,6.42,12.6,47.59359,-54.27349
2017-10-07 23:20:00+00:00,247.0,253.0,6.39,7.33,12.7,47.59359,-54.27349
2017-10-07 23:30:00+00:00,250.0,253.0,6.92,7.8,12.7,47.59359,-54.27349
2017-10-07 23:40:00+00:00,249.0,257.0,6.69,7.85,12.7,47.59359,-54.27349
2017-10-07 23:50:00+00:00,251.0,258.0,6.77,7.92,12.7,47.59359,-54.27349
